OBJECT M, 44890

Orbit data source: Space-Track

You're viewing an Uncataloged Satellite

Recently launched and/or uncataloged satellites may have evolving metadata. Metadata may include but not limited to: Owner, Maufacturer, Bus, Motor, and Mission.

OBJECT M, 44890 is a satellite in SSO that was launched on Fri, 20 Dec 2019 UTC launched from the Taiyaun Space Center, China (TSC). Unknown objects in Earth's orbit typically refer to objects detected orbiting the Earth but have not yet been identified or cataloged. These objects could be anything from previously untracked satellites, spent rocket stages, debris from satellite collisions, or even natural meteoroids temporarily captured by Earth's gravity.

Loading next visibility...
OBJECT M details
Identifier
44890, 2019-093M
Orbit
SSO
Last TLE update9 hours ago
Origin
Flag of TBDCNSA (TBD)
ManufacturerSAST
MissionSpacecraft
Bus & MotorUnknown
MassUnknown
Launch date (UTC)
2019-12-20 (5 years ago)
Launch vehicleUnknown
Launch site
Taiyaun Space Center, China (TSC)
Object typeUnknown
Shape & HBRUnknown
Radar Cross SectionSmall (<0.1 m²)

Expand to show TLE details & history

TLE from 9 hours ago
0 OBJECT M
1 44890U 19093M   24361.50560960  .00019752  00000-0  13681-2 0  9999
2 44890  97.7821  85.3154 0030929   6.1845 353.9756 15.05295316272864
Epoch: 2024-12-26T12:08Z
Definitive object data (Epoch: 2024-12-26T12:08:04.669Z)
Latitude-0.00009°
Longitude167.81192°
Altitude532.343 km
Speed7.608 km/s
True Right ascension05h 41m 15s
True Declination0° 00' 00"
Sunlit
Object was in full shadow at TLE epoch
Visualization TLE readout
Latitude-70.26724°
Longitude-169.53236°
Altitude571.716 km
Speed7.577 km/s
Apparent Right ascension08h 15m 56s
Apparent Declination-56° 05' 49"
Sunlit
Object is in daylight
Visualization observer readout
Local Sidereal Time20:46:23
Azimuth165.306° S
Elevation-73.061°
Doppler factor1
Orbital elements
Apogee altitude569.022 km
Perigee altitude526.181 km
Semi-major axis6,925.738 km
Eccentricity0.0030929
Inclination97.7821°
RAAN85.3154°
Arg. of periapsis6.1845°
True anomaly353.93826°
Mean anomaly353.9756°
Eccentric anomaly353.95694°
Mean motion3.76569 °/min
BSTAR0.0013681
Orbital period95.6 mins
Loading maneuver chart data...
Loading historical data...
Loading historical data...
Loading historical data...
Loading historical data...
Loading historical data...
Loading historical data...
Loading historical data...

OBJECT M Visibility forecast

Observer location: undefined°, undefined

Span
Click to sort rows by Start time (UTC) header in descending order
Start Az.
Max El. time (UTC)
Max El. Az.
Max El.
End time (UTC)
End Az.
7 mins2024-12-27 05:48:24.362Z164.502° S2024-12-27 05:51:24.362Z145.902° SSE44.189°2024-12-27 05:55:24.362Z348.828° N
6 mins2024-12-27 19:01:24.362Z353.759° N2024-12-27 19:03:24.362Z296.306° NW38.947°2024-12-27 19:07:24.362Z208.815° SW
|